Location: Peebles
(55.6412°N, 3.1714°W)
Time: 05:07:29
(UTC+01:00)

deb Agena D - Pass Details

Date: 04 July 2022
Orbit: 797 x 980 km, 99.8° (Epoch: 16 August)

Event Time Altitude Azimuth Distance (km) Brightness Sun altitude
Rises 00:07:04 0° 15° (NNE) 3,370 10.4 -10.1°
Reaches altitude 10° 00:09:33 10° 7° (N) 2,455 9.8 -10.2°
Maximum altitude 00:14:22 34° 304° (NW) 1,377 7.8 -10.3°
Drops below altitude 10° 00:19:23 10° 241° (WSW) 2,544 8.5 -10.5°
Sets 00:22:00 0° 233° (SW) 3,510 9.2 -10.6°
